[[{"header":{"parameterUnit":"m.s-1","parameterCategory":1,"la1":30.2991,"la2":30.254,"lo1":-89.0895,"lo2":-89.0444,"dy":0.0017,"dx":0.0017,"nx":28,"ny":28,"refTime":"2024-03-08T03:00:00:Z","depth":0,"parameterNumber":2,"parameterNumberName":"U-component_of_WINDS"},"data":[0,0,0,0,0,0,0,0,0,0,0,0,0,0,0,0,0,0,0,0,0,0,0,0,0,0,0,0,0,0,0,0,0,0,0,0,0,0,0,0,0,0,0,0,0,0,0,0,0,0,0,0,0,0,0,0,0,0,-0.307,-0.3072,0,-0.3193,-0.3194,-0.3195,-0.3265,-0.3265,-0.3266,-0.3266,-0.3392,-0.3395,-0.3399,0,0,0,0,0,0,0,0,0,0,0,0,0,-0.2899,-0.2901,-0.307,-0.3072,-0.3073,-0.3192,-0.3194,-0.3196,-0.3265,-0.3265,-0.3266,-0.3266,-0.3391,-0.3395,-0.3399,0,0,0,0,0,0,0,0,0,0,0,0,0,-0.2992,-0.2902,-0.307,-0.3122,-0.3128,-0.3192,-0.3194,-0.3196,-0.3265,-0.3266,-0.3266,-0.3266,-0.339,-0.3395,-0.3399,-0.3421,0,0,-0.3414,-0.3416,0,0,0,0,0,0,0,0,-0.2987,-0.2998,-0.3113,-0.3119,-0.3126,-0.3214,-0.318,-0.3272,-0.3265,-0.3213,-0.3266,-0.3266,-0.3333,-0.3342,-0.3364,-0.3427,-0.3432,-0.3414,-0.3417,-0.3419,-0.342,0,0,0,0,0,0,0,-0.298,-0.2994,-0.3119,-0.3115,-0.3122,-0.314,-0.3154,-0.3198,-0.3269,-0.3218,-0.3223,-0.3237,-0.3336,-0.336,-0.3368,-0.3434,-0.3414,-0.3418,-0.3421,-0.3423,-0.3522,-0.3522,0,0,0,0,0,0,-0.2965,-0.2988,-0.3115,-0.3122,-0.3056,-0.3143,-0.3158,-0.3185,-0.3269,-0.3282,-0.3236,-0.3239,-0.3352,-0.3362,-0.3373,-0.3404,-0.3419,-0.3423,-0.3426,-0.3522,-0.3522,-0.3522,0,0,0,0,0,0,-0.2961,-0.2976,-0.311,-0.3057,-0.3075,-0.3146,-0.3175,-0.3187,-0.3211,-0.3283,-0.3296,-0.3247,-0.3352,-0.3366,-0.3409,-0.341,-0.3426,-0.343,-0.3522,-0.3522,-0.3522,-0.3467,0,0,0,0,0,0,-0.2956,-0.2974,-0.2982,-0.3056,-0.3078,-0.3143,-0.3175,-0.319,-0.3219,-0.3224,-0.3297,-0.3309,-0.3354,-0.3401,-0.3413,-0.3416,-0.3433,-0.3523,-0.3522,-0.3522,-0.3469,-0.3465,-0.3461,0,0,0,0,0,-0.295,-0.2962,-0.2983,-0.2997,-0.309,-0.3143,-0.3155,-0.3206,-0.3218,-0.3228,-0.3275,-0.3307,-0.3407,-0.3405,-0.3419,-0.3424,-0.3523,-0.3522,-0.3522,-0.3471,-0.3466,-0.3461,0,0,0,0,0,0,-0.2887,-0.2973,-0.2996,-0.3033,-0.308,-0.3155,-0.3168,-0.3199,-0.3244,-0.3247,-0.3309,-0.3324,-0.3361,-0.3397,-0.3393,-0.345,-0.3469,-0.3471,-0.3425,-0.3421,-0.3417,-0.3408,-0.3437,0,0,0,0,0,-0.2877,-0.2913,-0.2986,-0.3012,-0.3034,-0.3097,-0.3122,-0.3157,-0.3209,-0.3229,-0.3279,-0.3328,-0.3371,-0.3398,-0.3441,-0.3475,-0.3492,-0.3485,-0.3481,-0.3477,-0.3479,-0.35,-0.3498,-0.352,-0.352,-0.352,0,0,-0.2858,-0.2909,-0.2928,-0.3001,-0.3041,-0.3078,-0.3113,-0.315,-0.3178,-0.3235,-0.3278,-0.3316,-0.3375,-0.3413,-0.3433,-0.3444,-0.3476,-0.3477,-0.3473,-0.3477,-0.3499,-0.3497,-0.3495,-0.352,-0.352,-0.352,0,0,-0.2842,-0.2884,-0.291,-0.295,-0.3011,-0.3053,-0.3059,-0.3129,-0.3156,-0.3201,-0.3244,-0.3279,-0.3351,-0.3392,-0.3422,-0.3421,-0.3452,-0.3433,-0.3413,-0.3433,-0.3431,-0.343,-0.343,-0.343,-0.3434,-0.3434,-0.3434,0,-0.281,-0.2866,-0.2919,-0.2954,-0.2985,-0.3038,-0.3065,-0.3102,-0.3174,-0.3194,-0.3206,-0.3298,-0.3342,-0.3391,-0.339,-0.3413,-0.3422,-0.3425,-0.3427,-0.3426,-0.3426,-0.3427,-0.3427,-0.3432,-0.3432,-0.3432,-0.3433,0,-0.2824,-0.2862,-0.2876,-0.2944,-0.2977,-0.3007,-0.3066,-0.3093,-0.3125,-0.3166,-0.3211,-0.3265,-0.332,-0.3335,-0.3367,-0.3388,-0.3394,-0.3415,-0.3436,-0.342,-0.3422,-0.3423,-0.3428,-0.3429,-0.343,-0.343,0,0,-0.2772,-0.2869,-0.2873,-0.2905,-0.2977,-0.3007,-0.3041,-0.3095,-0.3117,-0.3165,-0.3195,-0.3255,-0.3276,-0.331,-0.3347,-0.3365,-0.3362,-0.3385,-0.3387,-0.3379,-0.339,-0.3373,-0.3372,-0.3383,-0.3383,-0.3383,-0.3385,0,-0.2766,-0.2828,-0.2877,-0.2921,-0.2957,-0.3008,-0.3038,-0.3085,-0.3124,-0.3161,-0.3204,-0.3246,-0.327,-0.3291,-0.3311,-0.3358,-0.3365,-0.3358,-0.3412,-0.3413,-0.3396,-0.3373,-0.3356,-0.3355,-0.3386,-0.3386,-0.3386,0,-0.2767,-0.2813,-0.286,-0.2928,-0.2945,-0.2971,-0.3025,-0.3059,-0.3114,-0.3142,-0.318,-0.3218,-0.3257,-0.3273,-0.3327,-0.3322,-0.3347,-0.3373,-0.3375,-0.3382,-0.3399,-0.338,-0.3355,-0.3355,-0.3388,-0.3388,-0.3388,0,-0.2724,-0.2798,-0.2836,-0.2861,-0.2942,-0.2959,-0.2993,-0.3049,-0.3078,-0.3126,-0.3146,-0.3197,-0.3225,-0.3264,-0.3316,-0.3323,-0.3365,-0.3386,-0.3389,-0.3388,-0.3396,-0.3395,-0.3375,-0.3411,-0.3411,-0.3411,-0.3411,0,-0.2713,-0.2739,-0.2818,-0.2841,-0.2873,-0.293,-0.296,-0.2999,-0.3048,-0.3081,-0.3128,-0.3158,-0.3224,-0.3262,-0.3303,-0.3342,-0.3354,-0.3378,-0.3388,-0.3374,-0.3371,-0.3391,-0.3393,-0.3411,-0.3411,-0.3411,-0.3411,0,-0.267,-0.2724,-0.2769,-0.2841,-0.286,-0.288,-0.2943,-0.2968,-0.301,-0.305,-0.3063,-0.3129,-0.3176,-0.3231,-0.3296,-0.3324,-0.336,-0.3375,-0.3341,-0.3347,-0.3348,-0.3347,-0.3341,-0.3343,-0.3376,-0.3376,-0.3376,0,-0.2659,-0.2681,-0.2756,-0.2781,-0.2814,-0.2854,-0.2884,-0.2941,-0.2971,-0.3036,-0.3053,-0.3104,-0.3147,-0.322,-0.3274,-0.3324,-0.3342,-0.3336,-0.335,-0.3334,-0.3342,-0.3341,-0.3343,-0.3332,-0.3332,-0.3331,-0.3331,0,-0.2635,-0.266,-0.2702,-0.2753,-0.2788,-0.2831,-0.2876,-0.2894,-0.2961,-0.2992,-0.3041,-0.3074,-0.3141,-0.3191,-0.3248,-0.3284,-0.3319,-0.3326,-0.333,-0.3315,-0.3294,-0.3306,-0.3331,-0.3326,-0.3326,-0.3327,-0.3327,-0.3327,-0.2609,-0.2631,-0.2687,-0.2732,-0.2772,-0.2813,-0.2841,-0.2886,-0.2927,-0.2985,-0.3017,-0.3064,-0.312,-0.3201,-0.3236,-0.3275,-0.3287,-0.3292,-0.3293,-0.3294,-0.3289,-0.3288,-0.3285,-0.3285,-0.3286,-0.3286,-0.3286,0,-0.2587,-0.2626,-0.2667,-0.2728,-0.2764,-0.2793,-0.2845,-0.2873,-0.2914,-0.2963,-0.3005,-0.3061,-0.3109,-0.3167,-0.322,-0.324,-0.3257,-0.3252,-0.3251,-0.3259,-0.3275,-0.3267,-0.3237,-0.3237,-0.3237,-0.3237,-0.3237,-0.3237,-0.258,-0.2619,-0.2651,-0.2711,-0.275,-0.2797,-0.2824,-0.2863,-0.2902,-0.2962,-0.3003,-0.304,-0.3093,-0.315,-0.3196,-0.3212,-0.3229,-0.3219,-0.324,-0.3254,-0.3258,-0.3262,-0.3255,-0.3223,-0.3223,-0.3221,-0.3221,-0.3221]},{"header":{"parameterUnit":"m.s-1","parameterCategory":1,"la1":30.2991,"la2":30.254,"lo1":-89.0895,"lo2":-89.0444,"dy":0.0017,"dx":0.0017,"nx":28,"ny":28,"refTime":"2024-03-08T03:00:00:Z","depth":0,"parameterNumber":3,"parameterNumberName":"V-component_of_WINDS"},"data":[0,0,0,0,0,0,0,0,0,0,0,0,0,0,0,0,0,0,0,0,0,0,0,0,0,0,0,0,0,0,0,0,0,0,0,0,0,0,0,0,0,0,0,0,0,0,0,0,0,0,0,0,0,0,0,0,0,0,6.2275,6.2278,0,6.2532,6.2535,6.2538,6.2583,6.2581,6.2578,6.2576,6.2842,6.2851,6.286,0,0,0,0,0,0,0,0,0,0,0,0,0,6.1827,6.1835,6.2275,6.2278,6.2281,6.2531,6.2535,6.2539,6.2583,6.2581,6.2578,6.2575,6.2839,6.285,6.2861,0,0,0,0,0,0,0,0,0,0,0,0,0,6.2046,6.1837,6.2274,6.2334,6.2341,6.2531,6.2535,6.2539,6.2584,6.258,6.2577,6.2574,6.2835,6.2849,6.2862,6.3011,0,0,6.2904,6.291,0,0,0,0,0,0,0,0,6.2034,6.2063,6.2322,6.233,6.2339,6.2522,6.2475,6.2698,6.2585,6.2492,6.2576,6.2573,6.2738,6.276,6.2815,6.3023,6.3035,6.2905,6.2913,6.2919,6.2923,0,0,0,0,0,0,0,6.2019,6.2052,6.2377,6.2325,6.2336,6.2349,6.2376,6.2517,6.263,6.25,6.2503,6.2533,6.2742,6.2802,6.2822,6.3039,6.2905,6.2917,6.2925,6.293,6.3386,6.339,0,0,0,0,0,0,6.1992,6.2039,6.2368,6.2384,6.2175,6.2359,6.239,6.2466,6.2629,6.265,6.2536,6.2534,6.278,6.2806,6.2831,6.302,6.2919,6.2932,6.294,6.3383,6.3387,6.3392,0,0,0,0,0,0,6.1982,6.2021,6.2358,6.2213,6.2257,6.2371,6.2456,6.2473,6.2533,6.2656,6.2677,6.2575,6.2779,6.2812,6.2967,6.3029,6.2938,6.295,6.3378,6.3384,6.3389,6.3395,0,0,0,0,0,0,6.1969,6.2017,6.2074,6.2214,6.2264,6.2488,6.246,6.2481,6.2556,6.2557,6.2699,6.2719,6.2779,6.2946,6.298,6.3046,6.2961,6.3373,6.3381,6.3388,6.339,6.34,6.3409,0,0,0,0,0,6.1953,6.2065,6.2077,6.2116,6.2337,6.2492,6.2521,6.2586,6.256,6.262,6.2699,6.2715,6.3016,6.2962,6.3,6.3071,6.3369,6.3378,6.3387,6.3385,6.3398,6.3409,0,0,0,0,0,0,6.193,6.2084,6.2099,6.2259,6.2362,6.2499,6.2575,6.2597,6.271,6.2706,6.2783,6.2815,6.2966,6.3034,6.297,6.3226,6.3191,6.3208,6.3177,6.319,6.3199,6.3181,6.2972,0,0,0,0,0,6.1943,6.2055,6.2184,6.2313,6.2363,6.246,6.253,6.2572,6.2682,6.2725,6.2816,6.2923,6.3043,6.3119,6.3236,6.3399,6.3433,6.3467,6.3477,6.3484,6.3499,6.3594,6.3612,6.3421,6.3421,6.342,0,0,6.1972,6.2071,6.2136,6.2311,6.2395,6.2511,6.2497,6.2618,6.2706,6.2744,6.2897,6.2967,6.3092,6.3252,6.3328,6.3314,6.3559,6.3496,6.35,6.3512,6.3605,6.3623,6.3639,6.3427,6.3426,6.3425,0,0,6.2085,6.2169,6.2288,6.2373,6.2501,6.2565,6.2593,6.2728,6.2776,6.293,6.2962,6.3067,6.327,6.3359,6.343,6.3579,6.3599,6.3614,6.3666,6.3758,6.3773,6.3787,6.3844,6.3862,6.3628,6.3628,6.3628,0,6.2106,6.228,6.2346,6.2468,6.2545,6.2584,6.2706,6.2786,6.2946,6.2999,6.298,6.3238,6.3324,6.3508,6.3544,6.36,6.3637,6.36,6.3765,6.378,6.3794,6.3849,6.3869,6.3629,6.3629,6.3629,6.3629,0,6.2301,6.2421,6.2501,6.2655,6.2741,6.2862,6.2948,6.3027,6.3062,6.3128,6.3286,6.3391,6.3531,6.3577,6.3611,6.3767,6.3755,6.375,6.3717,6.3813,6.3866,6.3887,6.3631,6.3631,6.363,6.363,0,0,6.2407,6.2596,6.2625,6.2697,6.2842,6.2937,6.3061,6.3197,6.3265,6.3374,6.3482,6.3654,6.3651,6.3732,6.3777,6.3857,6.3972,6.3843,6.3847,6.3867,6.4154,6.4159,6.4182,6.3985,6.3989,6.3993,6.4145,0,6.2539,6.2761,6.2825,6.3013,6.3127,6.3167,6.3275,6.3377,6.3442,6.355,6.3622,6.3744,6.3729,6.3779,6.386,6.3941,6.4032,6.393,6.4089,6.4094,6.406,6.4209,6.4215,6.4354,6.4166,6.4169,6.4172,0,6.2724,6.2837,6.3036,6.3169,6.322,6.3316,6.3448,6.3549,6.3666,6.3708,6.38,6.3838,6.3971,6.3929,6.4115,6.4045,6.4113,6.4163,6.417,6.419,6.4141,6.4237,6.4399,6.4421,6.4204,6.4202,6.4199,0,6.2786,6.2988,6.3134,6.3194,6.3352,6.3419,6.3488,6.3602,6.3681,6.3796,6.3849,6.3977,6.4049,6.4149,6.4222,6.4184,6.4403,6.4366,6.4445,6.4443,6.4491,6.4488,6.467,6.453,6.4529,6.4529,6.4528,0,6.2929,6.3051,6.3165,6.3255,6.3393,6.3465,6.36,6.3671,6.3772,6.3879,6.392,6.4019,6.4108,6.4219,6.4277,6.4425,6.4455,6.4495,6.451,6.4494,6.4489,6.4542,6.4536,6.4534,6.4533,6.4532,6.4531,0,6.3023,6.3103,6.3266,6.3403,6.344,6.3536,6.3654,6.3744,6.3811,6.3945,6.3981,6.4087,6.4221,6.4303,6.4472,6.4511,6.4674,6.4683,6.4635,6.4643,6.4718,6.4711,6.4944,6.4979,6.4811,6.4812,6.4814,0,6.3111,6.3205,6.3352,6.3426,6.3496,6.3614,6.3696,6.3771,6.3854,6.3996,6.407,6.4206,6.4319,6.4531,6.4624,6.4755,6.477,6.4842,6.479,6.4772,6.4775,6.477,6.4782,6.4852,6.4853,6.4854,6.4855,0,6.3259,6.3295,6.341,6.354,6.3635,6.3741,6.3847,6.3905,6.3999,6.4091,6.4228,6.4316,6.4489,6.4625,6.4764,6.4837,6.4864,6.4871,6.4897,6.4883,6.4852,6.4874,6.4663,6.4866,6.4865,6.4864,6.4863,6.4863,6.3356,6.3443,6.356,6.3688,6.3775,6.3874,6.3966,6.4045,6.4161,6.4308,6.4345,6.449,6.4607,6.4797,6.4873,6.4988,6.4978,6.5014,6.5024,6.5033,6.5037,6.4831,6.5013,6.5013,6.5013,6.5013,6.5013,0,6.351,6.3587,6.3704,6.3851,6.3952,6.3966,6.4084,6.4168,6.4295,6.4402,6.4513,6.4672,6.4805,6.4908,6.5045,6.5118,6.5134,6.5151,6.5149,6.5166,6.5036,6.5002,6.5137,6.5137,6.5137,6.5137,6.5137,6.5137,6.3602,6.3751,6.3801,6.3995,6.4072,6.4215,6.4281,6.4373,6.4459,6.4635,6.4746,6.4812,6.4919,6.5064,6.5187,6.5214,6.5264,6.528,6.531,6.5188,6.5174,6.5162,6.513,6.529,6.529,6.5431,6.5432,6.5433]}]]